Location: Wheeling
(40.0640°N, 80.7210°W)
Time: 13:31:30
(UTC-05:00)

ITAMSAT 1 - Pass Details

Date: 30 October 2021
Orbit: 784 x 796 km, 98.9° (Epoch: 01 December)

Event Time Altitude Azimuth Distance (km) Brightness Sun altitude
Rises 21:10:50 0° 211° (SSW) 3,261 11.1 -32.7°
Reaches altitude 10° 21:14:12 10° 235° (SW) 2,340 10.6 -33.3°
Maximum altitude 21:17:03 15° 269° (W) 2,026 10.5 -33.9°
Drops below altitude 10° 21:19:55 10° 303° (WNW) 2,353 10.8 -34.4°
Sets 21:23:21 0° 326° (NW) 3,290 11.4 -35.1°
